| time (UTC) | temp C | wind direction | speed KPH | gust KPH | rain 1hr cm | rain 24hr cm | rain mn cm | humidity % | barometer mb |
| 20260502152004 | 11 | 246 | 16.1 | 27.4 | 0.00 | 0.00 | 0.00 | 46 | 1023.7 |
| 20260502151003 | 11 | 241 | 14.5 | 24.1 | 0.00 | 0.00 | 0.00 | 46 | 1023.7 |
| 20260502122003 | 0 | 253 | 3.2 | 4.8 | 0.00 | 0.00 | 0.00 | 85 | 1024.7 |
| 20260502121003 | 0 | 233 | 1.6 | 4.8 | 0.00 | 0.00 | 0.00 | 84 | 1024.7 |
| 20260502115004 | 0 | 240 | 3.2 | 4.8 | 0.00 | 0.00 | 0.00 | 83 | 1024.7 |
| 20260502114003 | 0 | 242 | 3.2 | 4.8 | 0.00 | 0.00 | 0.00 | 82 | 1024.6 |
| 20260502113004 | 0 | 237 | 3.2 | 4.8 | 0.00 | 0.00 | 0.00 | 82 | 1024.5 |
| 20260502112004 | 0 | 237 | 3.2 | 4.8 | 0.00 | 0.00 | 0.00 | 82 | 1024.5 |
| 20260502111003 | 0 | 244 | 3.2 | 4.8 | 0.00 | 0.00 | 0.00 | 83 | 1024.5 |
| 20260502110004 | 0 | 247 | 3.2 | 4.8 | 0.00 | 0.00 | 0.00 | 84 | 1024.5 |
| 20260502104003 | 0 | 238 | 1.6 | 4.8 | 0.00 | 0.00 | 0.00 | 84 | 1024.6 |
| 20260502103003 | 0 | 238 | 1.6 | 4.8 | 0.00 | 0.00 | 0.00 | 84 | 1024.6 |
| 20260502102003 | 0 | 237 | 3.2 | 4.8 | 0.00 | 0.00 | 0.00 | 85 | 1024.6 |
| 20260502101004 | 0 | 244 | 1.6 | 4.8 | 0.00 | 0.00 | 0.00 | 85 | 1024.5 |
| 20260502091003 | -1 | 222 | 1.6 | 4.8 | 0.00 | 0.00 | 0.00 | 86 | 1024.3 |
| 20260502071003 | -1 | 240 | 3.2 | 4.8 | 0.00 | 0.00 | 0.00 | 92 | 1024.4 |
| 20260502070003 | -1 | 246 | 3.2 | 4.8 | 0.00 | 0.00 | 0.00 | 91 | 1024.4 |
| 20260502065003 | -1 | 238 | 3.2 | 4.8 | 0.00 | 0.00 | 0.00 | 91 | 1024.4 |
| 20260502064003 | -2 | 244 | 1.6 | 3.2 | 0.00 | 0.00 | 0.00 | 90 | 1024.5 |
| 20260502063003 | -1 | 242 | 1.6 | 4.8 | 0.00 | 0.00 | 0.00 | 89 | 1024.5 |
| 20260502062004 | -1 | 66 | 0.0 | 1.6 | 0.00 | 0.00 | 0.00 | 91 | 1024.4 |
| 20260502061003 | -1 | 102 | 0.0 | 3.2 | 0.00 | 0.00 | 0.00 | 89 | 1024.5 |
| 20260502060003 | -1 | 250 | 3.2 | 4.8 | 0.00 | 0.00 | 0.00 | 88 | 1024.4 |
| 20260502055003 | 0 | 259 | 0.0 | 1.6 | 0.00 | 0.00 | 0.00 | 89 | 1024.4 |
| 20260502054003 | 0 | 229 | 1.6 | 3.2 | 0.00 | 0.00 | 0.00 | 89 | 1024.4 |
| 20260502053003 | 0 | 234 | 1.6 | 3.2 | 0.00 | 0.00 | 0.00 | 88 | 1024.4 |
| 20260502052003 | 0 | 230 | 1.6 | 4.8 | 0.00 | 0.00 | 0.00 | 88 | 1024.3 |
| 20260502045003 | 0 | 236 | 3.2 | 4.8 | 0.00 | 0.00 | 0.00 | 89 | 1024.3 |
| 20260502044003 | -1 | 253 | 1.6 | 3.2 | 0.00 | 0.00 | 0.00 | 88 | 1024.2 |
| 20260502043003 | 0 | 251 | 1.6 | 3.2 | 0.00 | 0.00 | 0.00 | 87 | 1024.2 |
| 20260502041003 | 0 | 197 | 0.0 | 1.6 | 0.00 | 0.00 | 0.00 | 85 | 1024.1 |
| 20260502040003 | 0 | 98 | 0.0 | 1.6 | 0.00 | 0.00 | 0.00 | 84 | 1024.0 |
| 20260502035003 | 0 | 162 | 0.0 | 4.8 | 0.00 | 0.00 | 0.00 | 84 | 1024.0 |
| 20260502034004 | 0 | 235 | 3.2 | 4.8 | 0.00 | 0.00 | 0.00 | 83 | 1024.1 |
| 20260502033003 | 1 | 239 | 1.6 | 3.2 | 0.00 | 0.00 | 0.00 | 81 | 1024.0 |
| 20260502032003 | 1 | 121 | 1.6 | 3.2 | 0.00 | 0.00 | 0.00 | 80 | 1024.0 |
| 20260502031003 | 1 | 74 | 0.0 | 1.6 | 0.00 | 0.00 | 0.00 | 79 | 1024.0 |
| 20260502030003 | 2 | 120 | 0.0 | 1.6 | 0.00 | 0.00 | 0.00 | 79 | 1023.9 |
| 20260502025003 | 2 | 125 | 0.0 | 1.6 | 0.00 | 0.00 | 0.00 | 77 | 1023.9 |
| 20260502024004 | 3 | 2 | 0.0 | 3.2 | 0.00 | 0.00 | 0.00 | 76 | 1023.8 |
| 20260502023003 | 3 | 339 | 1.6 | 1.6 | 0.00 | 0.00 | 0.00 | 73 | 1023.8 |
| 20260502022003 | 4 | 341 | 0.0 | 1.6 | 0.00 | 0.00 | 0.00 | 69 | 1023.7 |
| 20260502021003 | 4 | 326 | 1.6 | 3.2 | 0.00 | 0.00 | 0.00 | 66 | 1023.6 |
| 20260502020003 | 5 | 55 | 1.6 | 4.8 | 0.00 | 0.00 | 0.00 | 64 | 1023.4 |
| 20260502015003 | 5 | 60 | 0.0 | 3.2 | 0.00 | 0.00 | 0.00 | 62 | 1023.3 |
| 20260502014003 | 6 | 343 | 0.0 | 4.8 | 0.00 | 0.00 | 0.00 | 59 | 1023.2 |
| 20260502013003 | 7 | 31 | 0.0 | 4.8 | 0.00 | 0.00 | 0.00 | 57 | 1023.1 |
| 20260502012003 | 7 | 74 | 1.6 | 4.8 | 0.00 | 0.00 | 0.00 | 54 | 1023.0 |
| 20260502011003 | 8 | 95 | 1.6 | 4.8 | 0.00 | 0.00 | 0.00 | 52 | 1023.0 |
| 20260502010003 | 8 | 31 | 1.6 | 4.8 | 0.00 | 0.00 | 0.00 | 49 | 1022.9 |
| 20260502005003 | 9 | 14 | 1.6 | 14.5 | 0.00 | 0.00 | 0.00 | 49 | 1022.8 |
| 20260502003008 | 10 | 74 | 4.8 | 11.3 | 0.00 | 0.00 | 0.00 | 46 | 1022.7 |
| 20260502002003 | 10 | 51 | 4.8 | 12.9 | 0.00 | 0.00 | 0.00 | 46 | 1022.7 |
| 20260502001003 | 9 | 110 | 3.2 | 19.3 | 0.00 | 0.00 | 0.00 | 49 | 1022.7 |
| 20260501235003 | 9 | 323 | 4.8 | 11.3 | 0.00 | 0.00 | 0.00 | 49 | 1022.6 |
| 20260501234003 | 8 | 328 | 3.2 | 12.9 | 0.00 | 0.00 | 0.00 | 47 | 1022.7 |
| 20260501233004 | 9 | 326 | 6.4 | 19.3 | 0.00 | 0.00 | 0.00 | 46 | 1022.6 |
| 20260501231004 | 11 | 308 | 12.9 | 32.2 | 0.00 | 0.00 | 0.00 | 45 | 1022.4 |
| 20260501225004 | 10 | 77 | 3.2 | 19.3 | 0.00 | 0.00 | 0.00 | 49 | 1022.6 |
| 20260501223004 | 10 | 321 | 9.7 | 16.1 | 0.00 | 0.00 | 0.00 | 44 | 1022.6 |
| 20260501222004 | 11 | 100 | 3.2 | 16.1 | 0.00 | 0.00 | 0.00 | 46 | 1022.6 |
| 20260501221004 | 11 | 73 | 6.4 | 22.5 | 0.00 | 0.00 | 0.00 | 48 | 1022.5 |
| 20260501220003 | 10 | 317 | 4.8 | 19.3 | 0.00 | 0.00 | 0.00 | 49 | 1022.6 |
| 20260501215003 | 10 | 83 | 4.8 | 12.9 | 0.00 | 0.00 | 0.00 | 47 | 1022.5 |
| 20260501214004 | 10 | 96 | 9.7 | 19.3 | 0.00 | 0.00 | 0.00 | 45 | 1022.6 |
| 20260501213004 | 10 | 56 | 4.8 | 24.1 | 0.00 | 0.00 | 0.00 | 49 | 1022.7 |
| 20260501212004 | 10 | 328 | 11.3 | 24.1 | 0.00 | 0.00 | 0.00 | 46 | 1022.6 |
| 20260501211003 | 10 | 312 | 14.5 | 24.1 | 0.00 | 0.00 | 0.00 | 48 | 1022.7 |
| 20260501210003 | 10 | 61 | 8.0 | 24.1 | 0.00 | 0.00 | 0.00 | 47 | 1022.6 |
| 20260501204004 | 11 | 89 | 4.8 | 19.3 | 0.00 | 0.00 | 0.00 | 49 | 1022.7 |
| 20260501203004 | 11 | 308 | 8.0 | 19.3 | 0.00 | 0.00 | 0.00 | 46 | 1022.7 |
| 20260501202004 | 11 | 84 | 4.8 | 25.7 | 0.00 | 0.00 | 0.00 | 52 | 1022.8 |
| 20260501201004 | 10 | 8 | 4.8 | 16.1 | 0.00 | 0.00 | 0.00 | 52 | 1022.9 |
| 20260501200003 | 9 | 83 | 4.8 | 20.9 | 0.00 | 0.00 | 0.00 | 52 | 1023.0 |
| 20260501195004 | 9 | 329 | 8.0 | 22.5 | 0.00 | 0.00 | 0.00 | 48 | 1022.9 |
| 20260501194004 | 10 | 316 | 16.1 | 29.0 | 0.00 | 0.00 | 0.00 | 50 | 1022.9 |
| 20260501193004 | 10 | 115 | 6.4 | 24.1 | 0.00 | 0.00 | 0.00 | 50 | 1022.9 |
| 20260501192004 | 10 | 49 | 6.4 | 19.3 | 0.00 | 0.00 | 0.00 | 49 | 1022.9 |
| 20260501191004 | 9 | 319 | 4.8 | 24.1 | 0.00 | 0.00 | 0.00 | 49 | 1023.0 |
| 20260501190004 | 10 | 318 | 12.9 | 24.1 | 0.00 | 0.00 | 0.00 | 51 | 1023.0 |
| 20260501185003 | 8 | 47 | 8.0 | 29.0 | 0.00 | 0.00 | 0.00 | 53 | 1022.9 |
| 20260501183004 | 8 | 316 | 8.0 | 20.9 | 0.00 | 0.00 | 0.00 | 52 | 1023.0 |
| 20260501182004 | 8 | 4 | 9.7 | 25.7 | 0.00 | 0.00 | 0.00 | 52 | 1023.1 |
| 20260501181003 | 8 | 30 | 11.3 | 20.9 | 0.00 | 0.00 | 0.00 | 55 | 1023.0 |
| 20260501180003 | 8 | 319 | 14.5 | 20.9 | 0.00 | 0.00 | 0.00 | 52 | 1023.1 |
| 20260501174003 | 8 | 81 | 3.2 | 19.3 | 0.00 | 0.00 | 0.00 | 56 | 1023.2 |
| 20260501173003 | 7 | 355 | 16.1 | 32.2 | 0.00 | 0.00 | 0.00 | 54 | 1023.2 |
| 20260501172004 | 8 | 300 | 16.1 | 27.4 | 0.00 | 0.00 | 0.00 | 54 | 1023.2 |
| 20260501170004 | 8 | 46 | 8.0 | 27.4 | 0.00 | 0.00 | 0.00 | 57 | 1023.1 |
| 20260501165003 | 8 | 335 | 6.4 | 24.1 | 0.00 | 0.00 | 0.00 | 60 | 1023.0 |
| 20260501164004 | 8 | 332 | 8.0 | 22.5 | 0.00 | 0.00 | 0.00 | 58 | 1022.8 |
| 20260501163003 | 8 | 317 | 16.1 | 32.2 | 0.00 | 0.00 | 0.00 | 56 | 1022.8 |
| 20260501162004 | 8 | 57 | 9.7 | 22.5 | 0.00 | 0.00 | 0.00 | 61 | 1022.8 |
| 20260501161004 | 8 | 67 | 6.4 | 32.2 | 0.00 | 0.00 | 0.00 | 60 | 1022.8 |